Station CHYV2 - 8638999 - Cape Henry, VA Image indicating link to RSS feed of recent meteorological observations for station CHYV2


Conditions at CHYV2 as of
(12:00 pm EDT)
1600 GMT on 04/20/2024:
     

Click on the graph icon in the table below to see a time series plot of the last five days of that observation.

5-day plot - Wind Direction Wind Direction (WDIR): NW ( 310 deg true )
5-day plot - Wind Speed Wind Speed (WSPD): 8.9 kts
5-day plot - Wind Gust Wind Gust (GST): 11.1 kts
5-day plot - Atmospheric Pressure Atmospheric Pressure (PRES):30.01 in
5-day plot - Pressure Tendency Pressure Tendency (PTDY):-0.01 in ( Falling )
5-day plot - Air Temperature Air Temperature (ATMP): 58.5 °F
5-day plot - Wind Speed at 10 Meters Wind Speed at 10 meters (WSPD10M): 7.8 kts
5-day plot - Wind Speed at 20 Meters Wind Speed at 20 meters (WSPD20M): 9.7 kts
5-day plot -  Wind Speed, Wind Gust and Atmospheric Pressure Combined plot of Wind Speed, Gust, and Air Pressure
NOS Water Level Observation Network Water Level
Previous observations
TIME
(EDT)
5-day plot - Wind Direction
WDIR
 
5-day plot - Wind Speed
WSPD
kts
5-day plot - Wind Gust
GST
kts
5-day plot - Wave Height
WVHT
ft
5-day plot - Dominant Wave Period
DPD
sec
5-day plot - Average Wave Period
APD
sec
5-day plot - Mean Wave Direction
MWD
 
5-day plot - Atmospheric Pressure
PRES
in
5-day plot - Pressure Tendency
PTDY
in
5-day plot - Air Temperature
ATMP
°F
5-day plot - Water Temperature
WTMP
°F
5-day plot - Dew Point
DEWP
°F
5-day plot - Salinity
SAL
psu
5-day plot - Visibility
VIS
nmi
5-day plot - Tide (above MLLW)
TIDE
ft
2024-04-20 11:54 am NW 9.9 11.1----30.01- 58.5-----
2024-04-20 11:48 am NW 8.0 9.9----30.01- 58.6-----
2024-04-20 11:42 am NW 8.9 9.9----30.01- 58.1-----
2024-04-20 11:36 am NW 8.9 9.9----30.00- 58.1-----
2024-04-20 11:30 am NW 8.0 9.9----30.01- 58.3-----
2024-04-20 11:24 am NW 8.0 9.9----30.01- 58.6-----
2024-04-20 11:18 am NW 8.0 8.9----30.00- 58.6-----
2024-04-20 11:12 am NW 8.0 8.0----30.00- 58.8-----
2024-04-20 11:06 am NW 8.0 8.9----30.01- 58.5-----
2024-04-20 11:00 amWNW 6.0 8.9----30.01+0.00 59.0-----
2024-04-20 10:54 am NW 7.0 8.0----30.00- 58.8-----
2024-04-20 10:48 amWNW 6.0 8.0----30.00- 59.4-----
2024-04-20 10:42 amWNW 5.1 7.0----30.00- 59.4-----
2024-04-20 10:36 am NW 4.1 6.0----30.00- 59.2-----
2024-04-20 10:30 amWNW 4.1 6.0----30.00- 59.0-----
2024-04-20 10:24 amWNW 4.1 8.0----30.01- 58.6-----
2024-04-20 10:18 amWNW 6.0 8.9----30.01- 58.1-----
2024-04-20 10:12 amWNW 6.0 8.9----30.01- 57.9-----
2024-04-20 10:06 amWNW 7.0 8.0----30.01- 58.8-----
2024-04-20 10:00 amWNW 4.1 6.0----30.01+0.00 59.5-----
2024-04-20 09:54 amWSW 2.9 5.1----30.01- 58.8-----
2024-04-20 09:48 am SW 4.1 5.1----30.01-------
2024-04-20 09:42 am W 2.9 4.1----30.01-------
2024-04-20 09:36 amWSW 2.9 4.1----30.01-------
2024-04-20 09:30 am W 2.9 5.1----30.00- 57.2-----
2024-04-20 09:24 am W 2.9 4.1----30.01- 57.0-----
2024-04-20 09:18 amWSW 1.9 4.1----30.00- 57.0-----
2024-04-20 09:12 amSSW 2.9 4.1----30.00- 56.8-----
2024-04-20 09:06 amSSW 1.0 5.1----30.00- 56.7-----
2024-04-20 09:00 amWSW 5.1 5.1----30.01+0.01 56.5-----
2024-04-20 08:54 amWSW 2.9 4.1----30.01- 56.3-----
2024-04-20 08:48 am W 2.9 5.1----30.01- 56.3-----
2024-04-20 08:42 amWNW 2.9 4.1----30.02- 56.3-----
2024-04-20 08:36 am NW 1.9 4.1----30.01- 56.3-----
2024-04-20 08:30 am NW 1.0 2.9----30.01- 55.9-----
2024-04-20 08:24 am W 2.9 2.9----30.01- 55.8-----
2024-04-20 08:18 am NW 2.9 2.9----30.01- 55.8-----
2024-04-20 08:12 amWNW 1.9 2.9----30.01- 55.6-----
2024-04-20 08:06 am- 0.0 1.9----30.01- 55.8-----
2024-04-20 08:00 amNNW 1.0 1.9----30.01+0.02 55.4-----
2024-04-20 07:54 am- 0.0 1.9----30.01- 55.4-----
2024-04-20 07:48 am E 1.9 2.9----30.00- 55.2-----
2024-04-20 07:42 amESE 1.9 2.9----30.00- 55.2-----
2024-04-20 07:36 amESE 2.9 4.1----30.00- 55.0-----
2024-04-20 07:30 amESE 2.9 4.1----30.00- 54.9-----
2024-04-20 07:24 amESE 4.1 5.1----30.00- 55.0-----
2024-04-20 07:18 amESE 2.9 4.1----30.00- 55.0-----
2024-04-20 07:12 am SE 4.1 4.1----30.00- 55.0-----
2024-04-20 07:06 am SE 2.9 2.9----30.01- 55.0-----
2024-04-20 07:00 am SE 1.9 2.9----30.01+0.01 55.0-----
2024-04-20 06:54 am SE 1.9 2.9----30.01- 55.0-----
2024-04-20 06:48 am S 1.9 1.9----30.01- 55.0-----
2024-04-20 06:42 am S 1.0 1.9----30.01- 55.0-----
2024-04-20 06:36 am S 1.0 1.9----30.01- 55.0-----
2024-04-20 06:30 amWSW 1.9 1.9----30.01-------
2024-04-20 06:24 am S 1.0 1.9----30.01-------
2024-04-20 06:18 amSSE 1.0 1.0----30.01- 54.7-----
2024-04-20 06:12 amSSE 1.0 1.9----30.01- 54.7-----
2024-04-20 06:06 amSSE 1.9 1.9----30.01- 54.7-----
2024-04-20 06:00 amSSE 1.9 2.9----30.01+0.00------
2024-04-20 05:54 am S 1.9 4.1----30.00-------
2024-04-20 05:48 amSSE 2.9 4.1----30.00- 54.9-----
2024-04-20 05:42 am S 1.9 1.9----30.00- 55.0-----
2024-04-20 05:36 am- 0.0 1.0----30.00- 55.0-----
2024-04-20 05:30 am- 0.0 1.0----30.00- 55.0-----
2024-04-20 05:24 amSSW 1.0 1.9----30.00- 55.0-----
2024-04-20 05:18 amSSE 1.9 4.1----29.99- 55.0-----
2024-04-20 05:12 am SE 4.1 6.0----29.99- 54.9-----
2024-04-20 05:06 am SE 5.1 6.0----29.99- 54.9-----
2024-04-20 05:00 am SE 5.1 7.0----29.99-0.03 54.9-----
2024-04-20 04:54 am SE 5.1 6.0----29.99- 54.9-----
2024-04-20 04:48 am SE 5.1 6.0----29.99- 54.9-----
2024-04-20 04:42 am SE 4.1 6.0----29.99- 54.9-----
2024-04-20 04:36 am SE 4.1 5.1----29.99- 54.7-----
2024-04-20 04:30 am SE 4.1 4.1----29.99-------
2024-04-20 04:24 amSSE 1.9 2.9----30.00-------
2024-04-20 04:18 amSSE 1.9 2.9----29.99- 54.5-----
2024-04-20 04:12 am S 1.0 1.9----29.99- 54.5-----
2024-04-20 04:06 amSSW 1.0 1.9----30.00- 54.5-----
2024-04-20 04:00 am-------30.00-0.04------
2024-04-20 03:54 am-------30.00-------
2024-04-20 03:48 am- 0.0 1.0----30.00- 54.5-----
2024-04-20 03:42 am- 0.0 0.0----30.00- 54.5-----
2024-04-20 03:36 am- 0.0 0.0----30.00- 54.3-----
2024-04-20 03:30 am- 0.0 1.0----30.01- 54.3-----
2024-04-20 03:24 am- 0.0 1.9----30.00- 54.1-----
2024-04-20 03:18 am S 1.0 1.0----30.00- 54.1-----
2024-04-20 03:12 am- 0.0 1.9----30.00- 54.1-----
2024-04-20 03:06 am SE 1.0 4.1----30.00- 54.1-----
2024-04-20 03:00 am SE 1.9 4.1----30.00-0.04 54.0-----
2024-04-20 02:54 amSSE 2.9 4.1----30.00- 54.0-----
2024-04-20 02:48 am S 2.9 4.1----30.01- 54.0-----
2024-04-20 02:42 amSSE 2.9 4.1----30.01- 53.8-----
2024-04-20 02:36 am S 1.9 2.9----30.01- 53.8-----
2024-04-20 02:30 am S 1.9 2.9----30.01- 53.8-----
2024-04-20 02:24 am S 1.9 4.1----30.01- 53.8-----
2024-04-20 02:18 amSSE 2.9 2.9----30.01- 53.6-----
2024-04-20 02:12 amSSE 1.9 2.9----30.01- 53.6-----
2024-04-20 02:06 amSSE 2.9 4.1----30.01- 53.4-----
2024-04-20 02:00 amSSE 2.9 2.9----30.02-0.02 53.4-----
2024-04-20 01:54 am S 1.9 2.9----30.02- 53.4-----
2024-04-20 01:48 am S 1.9 2.9----30.02- 53.4-----
2024-04-20 01:42 am S 1.9 4.1----30.03- 53.2-----
2024-04-20 01:36 amSSE 2.9 4.1----30.03- 53.2-----
2024-04-20 01:30 amSSE 2.9 5.1----30.03- 53.2-----
2024-04-20 01:24 amSSE 4.1 5.1----30.03- 53.1-----
2024-04-20 01:18 amSSE 4.1 5.1----30.03- 53.1-----
2024-04-20 01:12 amSSE 2.9 4.1----30.03- 53.1-----
2024-04-20 01:06 amSSE 4.1 4.1----30.03- 53.1-----
2024-04-20 01:00 am S 4.1 5.1----30.04-0.03 53.1-----
2024-04-20 12:54 am S 4.1 5.1----30.04- 52.9-----
2024-04-20 12:48 amSSE 4.1 5.1----30.04- 52.9-----
2024-04-20 12:42 amSSE 4.1 7.0----30.03- 53.1-----
2024-04-20 12:36 am SE 5.1 7.0----30.03- 52.9-----
2024-04-20 12:30 amSSE 5.1 8.0----30.04- 52.9-----
2024-04-20 12:24 am SE 5.1 7.0----30.04- 52.9-----
2024-04-20 12:18 amSSE 5.1 8.0----30.04- 52.9-----
2024-04-20 12:12 amSSE 5.1 8.0----30.03- 52.7-----
2024-04-20 12:06 amSSE 6.0 8.0----30.04- 52.7-----
2024-04-20 12:00 am SE 6.0 8.9----30.04-0.03 52.7-----
2024-04-19 11:54 pm SE 7.0 9.9----30.04- 52.7-----
2024-04-19 11:48 pm SE 8.0 9.9----30.03- 52.7-----
2024-04-19 11:42 pm SE 7.0 9.9----30.03- 52.5-----
2024-04-19 11:36 pmESE 8.0 9.9----30.03- 52.3-----
2024-04-19 11:30 pmESE 8.0 12.0----30.04- 52.3-----
2024-04-19 11:24 pm SE 8.0 12.0----30.04- 52.3-----
2024-04-19 11:18 pm SE 8.9 12.0----30.03- 52.2-----
2024-04-19 11:12 pm SE 9.9 13.0----30.03- 52.2-----
2024-04-19 11:06 pmESE 8.9 11.1----30.04- 52.2-----
2024-04-19 11:00 pmESE 8.9 13.0----30.04-0.02 52.2-----
2024-04-19 10:54 pmESE 11.1 12.0----30.04- 52.0-----
2024-04-19 10:48 pmESE 9.9 13.0----30.04- 52.2-----
2024-04-19 10:42 pm E 9.9 12.0----30.04- 52.0-----
2024-04-19 10:36 pmESE 8.9 12.0----30.05- 52.0-----
2024-04-19 10:30 pmESE 9.9 13.0----30.04- 52.0-----
2024-04-19 10:24 pm E 8.0 11.1----30.06- 51.8-----
2024-04-19 10:18 pmESE 9.9 12.0----30.05- 51.8-----
2024-04-19 10:12 pmESE 5.1 8.0----30.07- 52.0-----
2024-04-19 10:06 pmESE 5.1 8.0----30.06- 52.0-----
2024-04-19 10:00 pm SE 5.1 8.0----30.07+0.00 52.0-----
2024-04-19 09:54 pm SE 6.0 8.9----30.07- 51.8-----
2024-04-19 09:48 pmESE 6.0 8.0----30.07- 52.0-----
2024-04-19 09:42 pm SE 7.0 9.9----30.07- 52.0-----
2024-04-19 09:36 pmESE 8.0 12.0----30.06- 51.8-----
2024-04-19 09:30 pmESE 9.9 12.0----30.06- 51.8-----
2024-04-19 09:24 pmESE 9.9 12.0----30.06- 51.8-----
2024-04-19 09:18 pmESE 9.9 13.0----30.06- 51.8-----
2024-04-19 09:12 pmESE 12.0 14.0----30.05- 51.6-----
2024-04-19 09:06 pmESE 12.0 13.0----30.06- 51.6-----
2024-04-19 09:00 pmESE 9.9 12.0----30.06+0.00 51.4-----
2024-04-19 08:54 pmESE 9.9 13.0----30.06- 51.4-----
2024-04-19 08:48 pm E 12.0 14.0----30.06- 51.4-----
2024-04-19 08:42 pm E 11.1 14.0----30.06- 51.6-----
2024-04-19 08:36 pm E 11.1 13.0----30.05- 51.6-----
2024-04-19 08:30 pm E 9.9 12.0----30.06- 51.4-----
2024-04-19 08:24 pm E 11.1 13.0----30.05- 51.4-----
2024-04-19 08:18 pm E 11.1 13.0----30.06- 51.4-----
2024-04-19 08:12 pm E 11.1 13.0----30.06- 51.4-----
2024-04-19 08:06 pm E 12.0 13.0----30.06- 51.3-----
2024-04-19 08:00 pmENE 9.9 12.0----30.06+0.00 51.4-----
2024-04-19 07:54 pmENE 9.9 12.0----30.06- 51.4-----
2024-04-19 07:48 pmENE 9.9 12.0----30.06- 51.4-----
2024-04-19 07:42 pmENE 11.1 14.0----30.06- 51.4-----
2024-04-19 07:36 pm E 9.9 12.0----30.06- 51.4-----
2024-04-19 07:30 pmENE 8.9 11.1----30.06- 51.4-----
2024-04-19 07:24 pmENE 8.9 12.0----30.06- 51.3-----
2024-04-19 07:00 pmENE 8.9 11.1----30.06+0.01 51.4-----
2024-04-19 06:54 pm NE 8.0 11.1----30.06- 51.3-----
2024-04-19 06:48 pmENE 8.9 12.0----30.06- 51.3-----
2024-04-19 06:42 pmENE 9.9 11.1----30.06- 51.4-----
2024-04-19 06:36 pmENE 8.0 8.9----30.06- 51.4-----
2024-04-19 06:30 pmENE 7.0 8.9----30.06- 51.6-----
2024-04-19 06:24 pm E 6.0 8.9----30.06- 51.4-----
2024-04-19 06:18 pmENE 7.0 8.9----30.06- 51.4-----
2024-04-19 06:12 pmENE 8.0 9.9----30.06- 51.4-----
2024-04-19 06:06 pm E 8.0 9.9----30.06- 51.6-----
2024-04-19 06:00 pm E 7.0 9.9----30.06-0.01 51.4-----
2024-04-19 05:54 pm E 6.0 9.9----30.07- 51.4-----
2024-04-19 05:48 pm E 8.0 11.1----30.06- 51.4-----
2024-04-19 05:42 pmENE 9.9 13.0----30.06- 51.3-----
2024-04-19 05:36 pmENE 8.9 13.0----30.06- 51.4-----
2024-04-19 05:30 pm E 9.9 13.0----30.05- 51.4-----
2024-04-19 05:24 pm E 9.9 13.0----30.05- 51.4-----
2024-04-19 05:18 pm E 9.9 12.0----30.05- 51.3-----
2024-04-19 05:12 pm E 11.1 13.0----30.05- 51.6-----
2024-04-19 05:06 pm E 8.0 11.1----30.06- 51.4-----
2024-04-19 05:00 pm E 8.9 12.0----30.06-0.04 51.6-----
2024-04-19 04:54 pm E 8.9 12.0----30.06- 51.4-----
2024-04-19 04:48 pm E 8.9 11.1----30.06- 51.4-----
2024-04-19 04:42 pm E 8.9 11.1----30.06- 51.8-----
2024-04-19 04:36 pm E 8.0 12.0----30.06- 51.4-----
2024-04-19 04:30 pmENE 11.1 12.0----30.06- 51.3-----
2024-04-19 04:24 pm E 8.9 11.1----30.06- 51.6-----
2024-04-19 04:18 pm E 8.0 11.1----30.05- 51.6-----
2024-04-19 04:12 pm E 11.1 12.0----30.05- 51.6-----
2024-04-19 04:06 pm E 9.9 12.0----30.05- 51.4-----
2024-04-19 04:00 pm E 11.1 13.0----30.05-0.06 51.6-----
2024-04-19 03:54 pm E 8.9 11.1----30.05- 51.6-----
2024-04-19 03:48 pm E 11.1 12.0----30.06- 51.6-----
2024-04-19 03:42 pmENE 8.0 11.1----30.06- 51.6-----
2024-04-19 03:36 pmENE 8.9 12.0----30.06- 51.4-----
2024-04-19 03:30 pmENE 8.0 8.9----30.06- 51.4-----
2024-04-19 03:24 pm E 8.0 11.1----30.06- 51.3-----
2024-04-19 03:18 pm E 8.0 11.1----30.06- 51.3-----
2024-04-19 03:12 pm E 11.1 13.0----30.06- 51.3-----
2024-04-19 03:06 pm E 9.9 12.0----30.07- 51.6-----
2024-04-19 03:00 pm E 8.0 9.9----30.08-0.04 51.8-----
2024-04-19 02:54 pm E 7.0 8.9----30.08- 51.6-----
2024-04-19 02:48 pm E 8.0 9.9----30.09- 51.6-----
2024-04-19 02:42 pm E 7.0 8.9----30.08- 51.8-----
2024-04-19 02:36 pm E 7.0 8.0----30.08- 51.4-----
2024-04-19 02:30 pm E 8.9 11.1----30.09- 51.3-----
2024-04-19 02:24 pm E 8.9 14.0----30.08- 51.3-----
2024-04-19 02:18 pm E 8.0 9.9----30.08- 51.8-----
2024-04-19 02:12 pm E 5.1 8.9----30.09- 51.8-----
2024-04-19 02:06 pm E 8.0 9.9----30.09- 51.6-----
2024-04-19 02:00 pm E 8.0 9.9----30.09-0.05 51.4-----
2024-04-19 01:54 pm E 7.0 9.9----30.10- 51.4-----
2024-04-19 01:48 pm E 7.0 11.1----30.10- 51.4-----
2024-04-19 01:42 pm E 9.9 13.0----30.08- 51.4-----
2024-04-19 01:36 pm E 8.9 12.0----30.09- 51.3-----
2024-04-19 01:30 pmENE 8.9 11.1----30.10- 51.4-----
2024-04-19 01:24 pm E 8.0 11.1----30.10- 51.4-----
2024-04-19 01:18 pm E 6.0 8.0----30.11- 51.3-----
2024-04-19 01:12 pm E 7.0 11.1----30.11- 51.1-----
2024-04-19 01:06 pmENE 8.0 11.1----30.11- 51.1-----
2024-04-19 01:00 pm E 6.0 11.1----30.11-0.03 50.7-----
2024-04-19 12:54 pmENE 8.9 9.9----30.11- 51.1-----
2024-04-19 12:48 pm E 7.0 11.1----30.11- 50.7-----
2024-04-19 12:42 pm E 9.9 11.1----30.11- 50.5-----
2024-04-19 12:36 pmENE 9.9 14.0----30.11- 50.7-----
2024-04-19 12:30 pm E 8.9 12.0----30.12- 50.7-----
2024-04-19 12:24 pm E 9.9 13.0----30.12- 50.4-----
2024-04-19 12:18 pmENE 8.0 13.0----30.12- 50.5-----
2024-04-19 12:12 pmENE 11.1 13.0----30.12- 50.4-----
2024-04-19 12:06 pmENE 12.0 14.0----30.12- 50.2-----
2024-04-19 12:00 pmENE 12.0 14.0----30.12+0.00 50.2-----
2024-04-19 11:54 amENE 12.0 15.9----30.13- 50.0-----